When you browse on this site, cookies collect data to enhance your experience and personalize the content and advertising you see.
Visit our Privacy Policy to learn more. By continuing to use the site, you agree to this use of cookies and data.

Hourly Weather San Juan

Today, 5 August, Wednesday

Time Temperature Precipitation Wind Pressure Humidity
00:00 +15°C° 0 mm 1 mps 705 mmHg 67%
01:00 +14°C° 0 mm 1 mps 704 mmHg 76%
02:00 +14°C° 0 mm 1 mps 704 mmHg 77%
03:00 +13°C° 0 mm 1 mps 704 mmHg 77%
04:00 +13°C° 0 mm 1 mps 703 mmHg 78%
05:00 +13°C° 0 mm 2 mps 704 mmHg 76%
06:00 +13°C° 0 mm 2 mps 705 mmHg 73%
07:00 +13°C° 0 mm 2 mps 705 mmHg 71%
08:00 +15°C° 0 mm 2 mps 706 mmHg 63%
09:00 +17°C° 0 mm 2 mps 706 mmHg 54%
10:00 +19°C° 0 mm 2 mps 706 mmHg 46%
11:00 +20°C° 0 mm 2 mps 706 mmHg 42%
12:00 +21°C° 0 mm 2 mps 705 mmHg 37%
13:00 +23°C° 0 mm 2 mps 705 mmHg 33%
14:00 +22°C° 0 mm 3 mps 705 mmHg 32%
15:00 +24°C° 0 mm 3 mps 705 mmHg 32%
16:00 +23°C° 0 mm 4 mps 704 mmHg 31%
17:00 +21°C° 0 mm 3 mps 705 mmHg 33%
18:00 +20°C° 0 mm 3 mps 706 mmHg 35%
19:00 +19°C° 0 mm 3 mps 706 mmHg 37%
20:00 +18°C° 0 mm 4 mps 706 mmHg 42%
21:00 +17°C° 0 mm 4 mps 707 mmHg 46%
22:00 +16°C° 0 mm 5 mps 707 mmHg 50%
23:00 +15°C° 0 mm 5 mps 707 mmHg 52%

Tomorrow, 6 August, Thursday

Time Temperature Precipitation Wind Pressure Humidity
00:00 +15°C° 0 mm 5 mps 707 mmHg 55%
01:00 +14°C° 0 mm 5 mps 708 mmHg 58%
02:00 +14°C° 0 mm 6 mps 708 mmHg 60%
03:00 +13°C° 0 mm 8 mps 709 mmHg 61%
04:00 +13°C° 0 mm 9 mps 709 mmHg 63%
05:00 +12°C° 0 mm 9 mps 710 mmHg 57%
06:00 +11°C° 0 mm 9 mps 711 mmHg 51%
07:00 +10°C° 0 mm 9 mps 712 mmHg 44%
08:00 +10°C° 0 mm 8 mps 712 mmHg 42%
09:00 +11°C° 0 mm 7 mps 712 mmHg 40%
10:00 +12°C° 0 mm 7 mps 712 mmHg 38%
11:00 +13°C° 0 mm 6 mps 712 mmHg 37%
12:00 +14°C° 0 mm 5 mps 711 mmHg 36%
13:00 +14°C° 0 mm 4 mps 710 mmHg 34%
14:00 +14°C° 0 mm 3 mps 710 mmHg 34%
15:00 +14°C° 0 mm 3 mps 709 mmHg 34%
16:00 +15°C° 0 mm 2 mps 709 mmHg 34%
17:00 +14°C° 0 mm 2 mps 709 mmHg 36%
18:00 +13°C° 0 mm 1 mps 709 mmHg 39%
19:00 +12°C° 0 mm 1 mps 709 mmHg 41%
20:00 +12°C° 0 mm 1 mps 709 mmHg 43%
21:00 +11°C° 0 mm 1 mps 709 mmHg 46%
22:00 +9°C° 0 mm 0 mps 709 mmHg 48%
23:00 +9°C° 0 mm 0 mps 708 mmHg 49%

Day after tomorrow, 7 August, Friday

Time Temperature Precipitation Wind Pressure Humidity
00:00 +9°C° 0 mm 0 mps 708 mmHg 50%
01:00 +8°C° 0 mm 0 mps 707 mmHg 52%
02:00 +8°C° 0 mm 0 mps 707 mmHg 52%
03:00 +9°C° 0 mm 1 mps 707 mmHg 53%
04:00 +8°C° 0 mm 1 mps 706 mmHg 54%
05:00 +9°C° 0 mm 1 mps 707 mmHg 53%
06:00 +9°C° 0 mm 1 mps 707 mmHg 52%
07:00 +8°C° 0 mm 2 mps 708 mmHg 50%
08:00 +10°C° 0 mm 2 mps 708 mmHg 45%
09:00 +13°C° 0 mm 2 mps 708 mmHg 40%
10:00 +14°C° 0 mm 2 mps 709 mmHg 35%
11:00 +14°C° 0 mm 3 mps 709 mmHg 33%
12:00 +16°C° 0 mm 3 mps 709 mmHg 31%
13:00 +17°C° 0 mm 4 mps 708 mmHg 29%
14:00 +17°C° 0 mm 4 mps 708 mmHg 29%
15:00 +17°C° 0 mm 3 mps 708 mmHg 29%
16:00 +17°C° 0 mm 3 mps 708 mmHg 29%
17:00 +16°C° 0 mm 3 mps 709 mmHg 32%
18:00 +14°C° 0 mm 3 mps 709 mmHg 34%
19:00 +14°C° 0 mm 2 mps 709 mmHg 36%
20:00 +13°C° 0 mm 2 mps 709 mmHg 39%
21:00 +12°C° 0 mm 1 mps 709 mmHg 41%
22:00 +10°C° 0 mm 0 mps 709 mmHg 43%
23:00 +10°C° 0 mm 0 mps 709 mmHg 44%

8 August, Saturday

Time Temperature Precipitation Wind Pressure Humidity
00:00 +9°C° 0 mm 0 mps 709 mmHg 44%
01:00 +10°C° 0 mm 1 mps 708 mmHg 45%
02:00 +9°C° 0 mm 0 mps 708 mmHg 47%
03:00 +8°C° 0 mm 0 mps 707 mmHg 48%
04:00 +8°C° 0 mm 0 mps 707 mmHg 50%
05:00 +8°C° 0 mm 0 mps 707 mmHg 49%
06:00 +8°C° 0 mm 0 mps 707 mmHg 47%
07:00 +10°C° 0 mm 1 mps 707 mmHg 46%
08:00 +12°C° 0 mm 1 mps 708 mmHg 41%
09:00 +14°C° 0 mm 1 mps 708 mmHg 36%
10:00 +16°C° 0 mm 1 mps 708 mmHg 31%
11:00 +18°C° 0 mm 1 mps 707 mmHg 29%
12:00 +19°C° 0 mm 1 mps 707 mmHg 28%
13:00 +20°C° 0 mm 1 mps 706 mmHg 26%
14:00 +20°C° 0 mm 1 mps 706 mmHg 26%
15:00 +20°C° 0 mm 2 mps 706 mmHg 26%
16:00 +20°C° 0 mm 2 mps 706 mmHg 25%
17:00 +19°C° 0 mm 1 mps 706 mmHg 29%
18:00 +16°C° 0 mm 1 mps 706 mmHg 33%
19:00 +15°C° 0 mm 1 mps 706 mmHg 37%
20:00 +14°C° 0 mm 1 mps 706 mmHg 37%
21:00 +14°C° 0 mm 1 mps 705 mmHg 38%
22:00 +14°C° 0 mm 1 mps 705 mmHg 38%
23:00 +14°C° 0 mm 1 mps 705 mmHg 39%

9 August, Sunday

Time Temperature Precipitation Wind Pressure Humidity
00:00 +13°C° 0 mm 1 mps 705 mmHg 40%
01:00 +13°C° 0 mm 1 mps 704 mmHg 40%
02:00 +13°C° 0 mm 1 mps 704 mmHg 41%
03:00 +13°C° 0 mm 1 mps 703 mmHg 41%
04:00 +12°C° 0 mm 1 mps 703 mmHg 42%
05:00 +13°C° 0 mm 2 mps 703 mmHg 40%
06:00 +14°C° 0 mm 2 mps 704 mmHg 38%
07:00 +14°C° 0 mm 2 mps 704 mmHg 36%
08:00 +18°C° 0 mm 3 mps 704 mmHg 31%
09:00 +21°C° 0 mm 3 mps 705 mmHg 25%
10:00 +25°C° 0 mm 4 mps 705 mmHg 19%
11:00 +27°C° 0 mm 4 mps 704 mmHg 16%
12:00 +29°C° 0 mm 4 mps 704 mmHg 13%
13:00 +32°C° 0 mm 4 mps 703 mmHg 10%
14:00 +30°C° 0 mm 4 mps 703 mmHg 11%
15:00 +30°C° 0 mm 5 mps 703 mmHg 12%
16:00 +29°C° 0 mm 5 mps 703 mmHg 13%
17:00 +27°C° 0 mm 5 mps 704 mmHg 16%
18:00 +23°C° 0 mm 6 mps 704 mmHg 20%
19:00 +21°C° 0 mm 7 mps 705 mmHg 23%
20:00 +20°C° 0 mm 6 mps 705 mmHg 26%
21:00 +19°C° 0 mm 6 mps 706 mmHg 29%
22:00 +17°C° 0 mm 6 mps 706 mmHg 31%
23:00 +16°C° 0 mm 6 mps 706 mmHg 33%

10 August, Monday

Time Temperature Precipitation Wind Pressure Humidity
00:00 +15°C° 0 mm 5 mps 706 mmHg 34%
01:00 +14°C° 0 mm 5 mps 706 mmHg 36%
02:00 +14°C° 0 mm 4 mps 706 mmHg 38%
03:00 +13°C° 0 mm 3 mps 705 mmHg 40%
04:00 +12°C° 0 mm 3 mps 705 mmHg 42%
05:00 +12°C° 0 mm 2 mps 705 mmHg 43%
06:00 +12°C° 0 mm 2 mps 705 mmHg 44%
07:00 +12°C° 0 mm 1 mps 705 mmHg 45%
08:00 +14°C° 0 mm 1 mps 705 mmHg 41%
09:00 +16°C° 0 mm 1 mps 704 mmHg 37%
10:00 +18°C° 0 mm 1 mps 704 mmHg 33%
11:00 +20°C° 0 mm 1 mps 703 mmHg 30%
12:00 +20°C° 0 mm 2 mps 703 mmHg 27%
13:00 +23°C° 0 mm 2 mps 702 mmHg 24%
14:00 +23°C° 0 mm 2 mps 702 mmHg 23%
15:00 +22°C° 0 mm 3 mps 702 mmHg 23%
16:00 +24°C° 0 mm 3 mps 701 mmHg 23%
17:00 +21°C° 0 mm 3 mps 702 mmHg 26%
18:00 +19°C° 0 mm 3 mps 702 mmHg 29%
19:00 +17°C° 0 mm 2 mps 702 mmHg 32%
20:00 +17°C° 0 mm 3 mps 702 mmHg 32%
21:00 +16°C° 0 mm 3 mps 702 mmHg 31%
22:00 +16°C° 0 mm 3 mps 703 mmHg 31%
23:00 +14°C° 0 mm 4 mps 703 mmHg 31%
Show more